Location: New Mesquite
(33.1168°N, 96.4336°W)
Time: 21:48:44
(UTC+00:00)

Meteor 1-27 Rocket - Pass Details

Date: 03 July 2022
Orbit: 829 x 911 km, 81.3° (Epoch: 16 August)

Event Time Altitude Azimuth Distance (km) Brightness Sun altitude
Rises 09:18:42 0° 349° (N) 3,420 7.4 -21.0°
Reaches altitude 10° 09:21:09 10° 347° (NNW) 2,470 6.6 -20.7°
Maximum altitude 09:26:42 72° 265° (W) 879 3.6 -19.9°
Enters shadow 09:29:36 29° 187° (S) 1,488 4.5 -19.5°
